User: anonymous   Login
Location: Unspecified
(0.0000°N, 0.0000°E)
Time: 23:14:51
(UTC+00:00)
Language:

deb Kosmos-1275 - Orbit

View from above orbital plane
View from above orbital plane
View from above satellite
View from above satellite

Ground track
Ground track

The orbit is defined by the following mean orbital elements,

1 12758U          26073.26763064 +.00000000 +00000-0 +55715-3 0 00004
2 12758  82.8649 158.1465 0059056 110.2614 305.2309 13.82198666    04
Epoch (UTC): 14 March 2026 06:25:23
Eccentricity: 0.0059056
inclination: 82.8649°
perigee height: 913 km
apogee height: 999 km
right ascension of ascending node: 158.1465°
argument of perigee: 110.2614°
revolutions per day: 13.82198666
mean anomaly at epoch: 305.2309°

The dashed part of the orbit path shows where the satellite is in the earth's shadow,  

DLR